Location: *
(34.0486°S, 61.7880°E)
Time: 19:35:32
(UTC+00:00)

Lacrosse 5 - Pass Details

Date: 01 April 2020
Orbit: 715 x 724 km, 57.0° (Epoch: 25 May)

Event Time Altitude Azimuth Distance (km) Brightness Sun altitude
Exits shadow 23:42:08 52° 122° (ESE) 902 2.6 -30.4°
Drops below altitude 10° 23:46:51 10° 56° (NE) 2,201 4.8 -29.4°
Sets 23:49:16 0° 51° (NE) 3,114 5.6 -28.9°
